This demonstration page uses our WeatherBlox Daily Observations layout. Learn more.

Left ArrowRight Arrow

Hourly Observations for June 7, 2015

Temp ( °F °C ) Dew Point ( °F °C ) Humidity (%) Winds ( mph kmh ) Pressure ( in mb ) Visibility ( mi km ) Precip ( " mm )
12:34 am 00:34 Mostly Clear with Nearby Thunderstorms 77 25 68 20 74 74 S 16 26 29.71 1006 10 16.0934 N/A
12:54 am 00:54 Clear with Nearby Thunderstorms 78 25.6 68 20 71 71 SSW 17 28 29.72 1007 10 16.0934 N/A
1:10 am 01:10 Mostly Clear 77 25 68 20 74 74 SSW 15 24 29.71 1006 10 16.0934 N/A
1:47 am 01:47 Mostly Clear with Nearby Thunderstorms 77 25 68 20 74 74 SW 16 26 29.71 1006 7 11.26538 N/A
1:54 am 01:54 Mostly Clear with Nearby Thunderstorms 76 24.4 69 20.6 79 79 SW 14 22 29.72 1007 6 9.65604 0.01 0.254
2:02 am 02:02 Mostly Clear with Light Rain 75 23.9 69 20.6 82 82 SSW 15 24 29.68 1005 8 12.87472 0.02 0.508
2:54 am 02:54 Clear 74 23.3 67 19.4 79 79 SSW 12 19 29.69 1006 10 16.0934 0.02 0.508
3:54 am 03:54 Clear 74 23.3 66 18.9 76 76 SW 9 15 29.7 1006 10 16.0934 N/A
4:54 am 04:54 Clear 73 22.8 66 18.9 79 79 WSW 6 9 29.72 1006 10 16.0934 N/A
5:54 am 05:54 Clear 71 21.7 67 19.4 87 87 SW 8 13 29.72 1006 10 16.0934 N/A
6:54 am 06:54 Sunny 71 21.7 67 19.4 87 87 WSW 7 11 29.74 1007 10 16.0934 N/A
7:54 am 07:54 Sunny 74 23.3 67 19.4 79 79 NW 10 17 29.75 1007 9 14.48406 N/A
8:54 am 08:54 Sunny 76 24.4 66 18.9 72 72 N 13 20 29.76 1008 10 16.0934 N/A
9:54 am 09:54 Sunny 78 25.6 65 18.3 64 64 N 10 17 29.78 1008 10 16.0934 N/A
10:54 am 10:54 Sunny 81 27.2 66 18.9 61 61 NNW 10 17 29.77 1008 10 16.0934 N/A
11:54 am 11:54 Sunny 82 27.8 62 16.7 51 51 N 12 19 29.77 1008 10 16.0934 N/A
12:54 pm 12:54 Sunny 84 28.9 61 16.1 46 46 N 15 24 29.78 1009 10 16.0934 N/A
1:54 pm 13:54 Sunny 85 29.4 63 17.2 48 48 N 18 30 29.79 1009 10 16.0934 N/A
2:54 pm 14:54 Sunny 84 28.9 62 16.7 48 48 NNE 18 30 29.78 1009 10 16.0934 N/A
3:54 pm 15:54 Mostly Cloudy 82 27.8 60 15.6 47 47 N 16 26 29.78 1009 10 16.0934 N/A
4:54 pm 16:54 Mostly Cloudy 84 28.9 58 14.4 41 41 N 15 24 29.78 1009 10 16.0934 N/A
5:54 pm 17:54 Mostly Cloudy 77 25 53 11.7 43 43 N 12 19 29.8 1009 10 16.0934 N/A
6:54 pm 18:54 Partly Cloudy 80 26.7 57 13.9 45 45 N 9 15 29.8 1009 10 16.0934 N/A
7:54 pm 19:54 Sunny 77 25 57 13.9 50 50 NNW 13 20 29.81 1010 10 16.0934 N/A
8:54 pm 20:54 Sunny 73 22.8 56 13.3 55 55 N 5 7 29.83 1010 10 16.0934 N/A
9:54 pm 21:54 Clear 68 20 57 13.9 68 68 NNW 3 6 29.84 1011 10 16.0934 N/A
10:54 pm 22:54 Clear 68 20 57 14 69 69 N N/A 29.85 1011 10 16.0934 N/A
11:54 pm 23:54 Clear 64 17.8 58 14.4 81 81 N N/A 29.86 1011 10 16.0934 N/A

Powered by AerisWeather